ANDOYA/ANDENES(AFB) current weather conditions

sailwx.info

Wind from 240 at 17 knots gusting 28

Air temperature 5.0° C
Visibility: greater than 5.4 NM
Dewpoint -0.0° C

Last reported at 2017-Jan-17 03:20 UTC.
Time now 2017-Jan-17 04:55 UTC

Location: N 69°18' E 016°09'.
View on Google Maps.

See reports from other nearby stations

  
Tides and Currents Weather Stations Pressure Air Temp Water Temp Dewpoint Dewpoint Depression Visibility Wind Speed Wind Dir Waves Ship Positions
date/time (UTC)wind fromknots sea level pressurealtimeterstation pressurevisibilityair tempwater tempwave heightnotes
2017-Jan-17 03:20 240 17 gusting 28 5.4 5.0
2017-Jan-17 02:50 250 18 gusting 33 5.4 5.0
2017-Jan-17 02:20 240 13 5.4 4.0
2017-Jan-17 01:50 220 14 5.4 3.0
2017-Jan-17 01:20 230 14 3.2 3.0 Light rain.
2017-Jan-17 00:50 230 15 3.8 3.0 Light rain.
2017-Jan-17 00:20 220 18 5.4 3.0 Light drizzle.
2017-Jan-16 23:50 200 21 5.4 3.0 Drizzle.
2017-Jan-16 23:20 200 22 5.4 3.0
2017-Jan-16 22:50 180 21 5.4 2.0
2017-Jan-16 22:20 180 22 5.4 2.0
2017-Jan-16 21:50 180 24 5.4 2.0
2017-Jan-16 21:20 190 22 5.4 2.0
2017-Jan-16 20:50 190 22 5.4 2.0 Light rain showers.
2017-Jan-16 20:20 190 21 5.4 2.0 Light rain showers.
2017-Jan-16 19:50 190 20 5.4 2.0 Light rain showers.
2017-Jan-16 19:20 190 22 5.4 2.0 Light rain showers.
2017-Jan-16 18:50 190 18 5.4 2.0
2017-Jan-16 18:20 190 20 5.4 2.0
2017-Jan-16 17:50 190 20 5.4 2.0
2017-Jan-16 17:20 190 20 5.4 2.0
2017-Jan-16 16:50 190 20 5.4 2.0
2017-Jan-16 16:20 190 20 5.4 2.0
2017-Jan-16 15:50 190 20 5.4 2.0 Light rain showers.
2017-Jan-16 15:20 190 20 5.4 2.0
2017-Jan-16 14:50 190 17 5.4 2.0
2017-Jan-16 14:20 190 15 5.4 2.0
2017-Jan-16 13:50 190 18 5.4 2.0
2017-Jan-16 13:20 190 17 5.4 2.0
2017-Jan-16 12:50 190 18 5.4 2.0
2017-Jan-16 12:20 190 17 5.4 1.0
2017-Jan-16 11:50 190 17 5.4 1.0
2017-Jan-16 11:20 190 15 5.4-1.0
2017-Jan-16 10:50 190 13 5.4-1.0
2017-Jan-16 10:20 200 13 5.4-1.0
2017-Jan-16 09:50 190 13 5.4-1.0
2017-Jan-16 09:20 190 13 5.4-1.0
2017-Jan-16 08:50 190 12 5.4-1.0
2017-Jan-16 08:20 190 15 5.4-1.0
2017-Jan-16 07:50 190 15 5.4-1.0
2017-Jan-16 07:20 180 14 5.4-1.0
2017-Jan-16 06:50 190 13 5.4-0.0
2017-Jan-16 06:20 190 13 5.4-0.0
2017-Jan-16 05:50 200 11 5.4-1.0
2017-Jan-16 05:20 190 9 5.4-2.0
2017-Jan-16 04:50 180 8 5.4-1.0
2017-Jan-16 03:50 180 8 5.4-1.0
2017-Jan-16 03:20 190 6 5.4-0.0
2017-Jan-16 02:50 220 9 4.9 1.0 Precipitation.
2017-Jan-16 02:20 220 9 5.4 1.0 Light drizzle.
2017-Jan-16 01:50 220 13 4.3 1.0 Precipitation.
2017-Jan-16 01:20 230 5 5.4 2.0
2017-Jan-16 00:50 270 7 5.4 2.0 Light drizzle.
2017-Jan-16 00:20 230 9 5.4 1.0
2017-Jan-15 23:50 230 8 5.4-0.0
2017-Jan-15 23:20 220 8 5.4-1.0
2017-Jan-15 22:50 230 6 5.4-1.0
2017-Jan-15 22:20 240 6 5.4-0.0
2017-Jan-15 21:50 270 5 5.4 1.0
2017-Jan-15 21:20 310 5 5.4 1.0
2017-Jan-15 20:50 320 6 5.4 2.0
2017-Jan-15 20:20 330 8 5.4 2.0
2017-Jan-15 19:50 340 7 5.4 3.0
2017-Jan-15 19:20 340 9 5.4 3.0
2017-Jan-15 18:50 340 8 5.4 3.0
2017-Jan-15 18:20 350 7 5.4 3.0
2017-Jan-15 17:50 360 6 5.4 3.0
2017-Jan-15 17:20 030 15 5.4 2.0
2017-Jan-15 16:50 320 4 5.4 1.0
2017-Jan-15 16:20 290 6 5.4 1.0
2017-Jan-15 15:50 310 8 5.4 1.0
2017-Jan-15 15:20 020 5 5.4 1.0 Precipitation.
2017-Jan-15 14:50 340 6 5.4-1.0 Precipitation.
2017-Jan-15 14:20 5.4-4.0
2017-Jan-15 13:50 050 6 5.4-2.0
2017-Jan-15 13:20 070 11 5.4 1.0
2017-Jan-15 12:50 080 13 5.4 1.0
2017-Jan-15 12:20 060 13 5.4 1.0
2017-Jan-15 11:50 060 14 5.4 1.0
2017-Jan-15 11:20 070 13 5.4 1.0
2017-Jan-15 10:50 060 13 5.4 1.0
2017-Jan-15 10:20 070 13 5.4 1.0
2017-Jan-15 09:50 070 17 5.4 1.0
2017-Jan-15 09:20 070 17 5.4 1.0
2017-Jan-15 08:50 070 14 5.4-0.0
2017-Jan-15 08:20 070 11 5.4-1.0
2017-Jan-15 07:50 090 9 5.4-0.0
2017-Jan-15 07:20 110 17 5.4-0.0
2017-Jan-15 06:50 100 17 5.4-1.0
2017-Jan-15 06:20 110 13 5.4-1.0
2017-Jan-15 05:50 110 11 5.4-1.0
2017-Jan-15 05:20 110 13 5.4-1.0
2017-Jan-15 04:50 120 12 5.4-1.0
2017-Jan-15 04:20 150 12 5.4-1.0